Location: Houston
(29.7630°N, 95.3630°W)
Time: 14:32:40
(UTC-06:00)

Amateur Radio Satellites - All Passes

Search period start: 24 November 2017 14:02
Search period end: 25 November 2017 14:02
Location: Houston, 29.7630°N, 95.3630°W

Satellite Date Start Highest point End Downlink Frequencies (MHz)
Time Altitude Azimuth
UKube-1 24 Nov 14:08:14 14:12:28 54° 101° (E) 14:16:40 .
50 SAT 24 Nov 14:11:18 14:14:24 46° 284° (WNW) 14:17:26 437.505
ITAMSAT 1 24 Nov 14:11:55 14:14:40 14° 66° (ENE) 14:17:24 435.822/435.867
JUGNU 24 Nov 14:19:41 14:24:48 30° 176° (S) 14:29:52 437.505
SRMSAT 24 Nov 14:24:43 14:27:31 14° 162° (SSE) 14:30:19 437.500
M-CUBED/EXP-1 PRIME 24 Nov 14:40:22 14:43:44 47° 256° (WSW) 14:47:23 437.505
MOZHAYETS 4 24 Nov 14:42:35 14:46:03 21° 96° (E) 14:49:32
Gurwin Techsat 1B 24 Nov 14:45:12 14:48:26 16° 265° (W) 14:51:42 435.225
AO-7 24 Nov 14:49:25 14:57:36 69° 70° (ENE) 15:05:49 .
BEESAT 24 Nov 14:53:36 14:57:08 21° 96° (E) 15:00:38 436.000
FALCONSAT 3 24 Nov 15:00:41 15:02:12 12° 215° (SW) 15:03:40 435.103
ITUPSAT 1 24 Nov 15:05:27 15:09:30 27° 98° (E) 15:13:31 437.325
YUBILEINY 24 Nov 15:06:28 15:10:45 14° 69° (ENE) 15:15:00 435.215
DX 1 24 Nov 15:11:38 15:14:09 15° 291° (WNW) 15:16:38 434.975-435.025
ITAMSAT 1 24 Nov 15:48:32 15:53:37 53° 259° (W) 15:58:43 435.822/435.867
JUGNU 24 Nov 16:08:21 16:13:22 29° 186° (S) 16:18:21 437.505
SRMSAT 24 Nov 16:11:21 16:16:08 25° 170° (S) 16:20:55 437.500
MOZHAYETS 4 24 Nov 16:19:18 16:23:05 26° 288° (WNW) 16:26:53
BEESAT 24 Nov 16:30:44 16:34:49 29° 289° (WNW) 16:38:53 436.000
DOVE 4 24 Nov 16:30:52 16:35:48 62° 76° (ENE) 16:40:58 437.250
CUBESAT XI-V 24 Nov 16:40:17 16:44:59 78° 284° (WNW) 16:49:41 437.345
ITUPSAT 1 24 Nov 16:43:28 16:47:06 22° 290° (WNW) 16:50:44 437.325
XW-2D 24 Nov 16:44:32 16:45:00 10° 69° (ENE) 16:45:29 145.860 - 145.880
AO-7 24 Nov 16:45:14 16:50:46 19° 264° (W) 16:56:20 .
XW-2B 24 Nov 16:57:38 16:59:52 15° 71° (ENE) 17:02:07 145.730 - 145.750
YUBILEINY 24 Nov 16:59:38 17:08:31 88° 263° (W) 17:17:19 435.215
RS-15 24 Nov 17:15:18 17:26:49 51° 108° (ESE) 17:38:25 29.354- 29.394
XW-2C 24 Nov 17:22:11 17:25:35 34° 75° (ENE) 17:28:59 145.795 - 145.815
LilacSat-2 24 Nov 17:28:53 17:32:29 47° 76° (ENE) 17:36:07 437.200
XW-2F 24 Nov 17:29:06 17:32:33 39° 75° (ENE) 17:36:02 145.980 - 146.000
KKS-1 24 Nov 17:42:22 17:46:49 77° 284° (WNW) 17:51:13 437.445
CUTE-I 24 Nov 17:48:01 17:53:19 65° 75° (ENE) 17:58:38 437.470
KAITUO 1B 24 Nov 17:49:56 17:53:31 59° 77° (ENE) 17:57:10 145.475/437.950
STARS 24 Nov 17:55:27 17:59:44 52° 101° (E) 18:03:57 437.465
JUGNU 24 Nov 17:57:54 18:01:50 18° 195° (SSW) 18:05:46 437.505
SRMSAT 24 Nov 17:59:39 18:04:50 32° 180° (S) 18:10:01 437.500
DOVE 4 24 Nov 18:12:32 18:13:49 11° 269° (W) 18:15:06 437.250
XW-2D 24 Nov 18:15:20 18:18:46 35° 262° (W) 18:22:13 145.860 - 145.880
nSIGHT-1 24 Nov 18:16:21 18:19:20 36° 130° (SE) 18:22:19 .
HO-68 24 Nov 18:24:07 18:31:10 61° 72° (ENE) 18:38:15 435.675
NUDT-PHONESAT 24 Nov 18:27:50 18:31:13 37° 261° (W) 18:34:37 437.300
XW-2B 24 Nov 18:30:48 18:33:48 23° 263° (W) 18:36:48 145.730 - 145.750
XW-2A 24 Nov 18:49:09 18:51:28 18° 73° (ENE) 18:53:47 145.665 - 145.685
CUTE 1.7 + AOD 2 24 Nov 18:52:15 18:56:25 77° 258° (WSW) 19:00:38 437.475
CUBEBUG 2 24 Nov 18:53:17 18:57:49 59° 76° (ENE) 19:02:13 437.445
YUBILEINY 24 Nov 19:00:52 19:03:57 12° 281° (W) 19:07:02 435.215
AAUSAT CUBESAT 2 24 Nov 19:09:47 19:13:33 36° 74° (ENE) 19:17:21 437.432
STRAND 1 24 Nov 19:10:06 19:14:38 32° 98° (E) 19:19:08 437.568
ISS 24 Nov 19:13:05 19:16:17 50° 316° (NW) 19:19:28 437.550
SEEDS 24 Nov 19:14:54 19:19:02 69° 260° (W) 19:23:12 437.485
ZACube-1 24 Nov 19:23:34 19:27:27 33° 74° (ENE) 19:31:17 437.345
SO-50 24 Nov 19:27:34 19:29:32 13° 108° (ESE) 19:31:30 436.795
RS-15 24 Nov 19:27:55 19:39:21 43° 306° (NW) 19:50:52 29.354- 29.394
CUTE-I 24 Nov 19:32:10 19:33:39 11° 267° (W) 19:35:09 437.470
STARS 24 Nov 19:35:04 19:35:32 10° 293° (WNW) 19:35:59 437.465
UWE-3 24 Nov 19:41:47 19:46:13 65° 259° (W) 19:50:32 435.000/436.395/437.385
SRMSAT 24 Nov 19:48:44 19:53:33 26° 190° (S) 19:58:23 437.500
nSIGHT-1 24 Nov 19:53:43 19:55:39 15° 323° (NW) 19:57:35 .
AO-73 24 Nov 20:11:37 20:15:53 66° 259° (W) 20:20:05 145.935
HO-68 24 Nov 20:14:23 20:19:10 19° 265° (W) 20:24:00 435.675
FO-29 24 Nov 20:16:45 20:23:55 42° 97° (E) 20:30:27 435.910
XW-2A 24 Nov 20:22:10 20:24:02 14° 264° (W) 20:25:54 145.665 - 145.685
Oscar 11 24 Nov 20:23:21 20:27:38 76° 260° (W) 20:31:55 .
NO-84 24 Nov 20:36:33 20:38:23 12° 37° (NE) 20:40:14 435.350 FM
DELFI C3 24 Nov 20:38:07 20:41:20 24° 72° (ENE) 20:44:34 145.870
EO-88 24 Nov 20:43:58 20:45:01 11° 70° (ENE) 20:46:02 145.990 - 145.960
AAUSAT CUBESAT 2 24 Nov 20:47:25 20:49:03 12° 266° (W) 20:50:42 437.432
STRAND 1 24 Nov 20:49:42 20:53:33 22° 291° (WNW) 20:57:23 437.568
Max Valier Satellite 24 Nov 20:53:10 20:56:05 23° 73° (ENE) 20:59:01 145.860
ZACube-1 24 Nov 21:01:23 21:03:44 14° 265° (W) 21:06:03 437.345
SO-50 24 Nov 21:05:17 21:09:32 44° 300° (WNW) 21:13:49 436.795
UNISAT 6 24 Nov 21:36:08 21:39:59 33° 98° (E) 21:43:51 437.425
SRMSAT 24 Nov 21:39:12 21:42:11 14° 198° (SSW) 21:45:10 437.500
TIGRISAT 24 Nov 21:39:21 21:43:10 32° 98° (E) 21:47:00 435.000
RS-15 24 Nov 21:53:13 21:56:24 11° 335° (NNW) 21:59:36 29.354- 29.394
FO-29 24 Nov 22:02:02 22:08:33 31° 293° (WNW) 22:14:39 435.910
NO-84 24 Nov 22:11:55 22:16:12 82° 229° (SW) 22:20:22 435.350 FM
DELFI C3 24 Nov 22:13:24 22:15:58 17° 265° (W) 22:18:34 145.870
ESTCUBE 1 24 Nov 22:14:27 22:17:19 17° 70° (ENE) 22:20:12 437.505/2401.250
EO-88 24 Nov 22:15:05 22:18:17 30° 262° (W) 22:21:30 145.990 - 145.960
LO-87 24 Nov 22:26:08 22:29:15 28° 74° (ENE) 22:32:22 145.935 - 145.965
Max Valier Satellite 24 Nov 22:27:51 22:29:49 14° 265° (W) 22:31:48 145.860
PCSat 24 Nov 22:48:49 22:53:58 47° 110° (ESE) 22:59:08 145.827
AIST 2D 24 Nov 22:50:00 22:52:40 20° 96° (E) 22:55:20 435.315
PRISM 24 Nov 22:54:46 22:58:55 82° 283° (WNW) 23:03:02 437.425
O/OREOS (USA 219) 24 Nov 22:58:21 23:02:51 65° 71° (ENE) 23:07:17 437.305
UNISAT 6 24 Nov 23:14:03 23:16:22 14° 291° (WNW) 23:18:41 437.425
TIGRISAT 24 Nov 23:17:11 23:19:31 15° 291° (WNW) 23:21:53 435.000
DUCHIFAT 1 24 Nov 23:32:43 23:35:18 16° 95° (E) 23:37:53 145.980
EO-79 24 Nov 23:44:23 23:48:06 31° 98° (E) 23:51:50 145.935-145.965
NANOSAT C BR1 24 Nov 23:44:52 23:48:27 27° 98° (E) 23:52:01 145.865
ESTCUBE 1 24 Nov 23:49:49 23:53:48 32° 262° (W) 23:57:49 437.505/2401.250
VELOX 1 24 Nov 23:51:36 23:55:30 31° 72° (ENE) 23:59:23 145.980
POLYITAN 1 25 Nov 00:00:35 00:04:40 52° 100° (E) 00:08:45 437.675
LO-87 25 Nov 00:01:28 00:02:38 11° 266° (W) 00:03:47 145.935 - 145.965
SPROUT 25 Nov 00:15:53 00:20:09 76° 258° (WSW) 00:24:26 437.525
AIST 2D 25 Nov 00:23:27 00:25:36 16° 288° (WNW) 00:27:46 435.315
QB50P2 25 Nov 00:24:13 00:28:23 65° 283° (WNW) 00:32:31 145.880/145.840
DX 1 25 Nov 00:25:13 00:27:39 15° 69° (ENE) 00:30:06 434.975-435.025
50 SAT 25 Nov 00:33:14 00:35:05 15° 72° (ENE) 00:36:57 437.505
PCSat 25 Nov 00:33:49 00:37:32 19° 304° (NW) 00:41:16 145.827
BEESAT 3 25 Nov 00:54:05 00:57:38 33° 112° (ESE) 01:01:14 437.485
UKube-1 25 Nov 00:57:18 01:00:33 21° 70° (ENE) 01:03:49 .
DUCHIFAT 1 25 Nov 01:07:22 01:10:55 28° 287° (WNW) 01:14:27 145.980
EO-79 25 Nov 01:21:10 01:23:32 15° 290° (WNW) 01:25:56 145.935-145.965
NANOSAT C BR1 25 Nov 01:21:11 01:23:52 17° 290° (WNW) 01:26:34 145.865
Gurwin Techsat 1B 25 Nov 01:25:58 01:30:34 29° 98° (E) 01:35:09 435.225
VELOX 1 25 Nov 01:29:01 01:31:54 17° 265° (W) 01:34:48 145.980
AO-91 25 Nov 01:34:04 01:38:06 46° 98° (E) 01:41:43 145.960
MOZHAYETS 4 25 Nov 01:41:23 01:42:03 10° 67° (ENE) 01:42:41
BUGSAT 1 25 Nov 01:42:32 01:46:24 48° 285° (WNW) 01:50:15 437.445
ISS 25 Nov 01:47:33 01:48:13 10° 33° (NNE) 01:48:54 437.550
BEESAT 25 Nov 01:55:40 01:57:42 13° 67° (ENE) 01:59:44 436.000
DX 1 25 Nov 01:59:28 02:03:28 35° 261° (W) 02:07:30 434.975-435.025
50 SAT 25 Nov 02:04:47 02:06:57 17° 263° (W) 02:09:07 437.505
Oscar 19 25 Nov 02:05:24 02:10:33 71° 285° (WNW) 02:15:42 437.125/150
ITUPSAT 1 25 Nov 02:07:11 02:10:15 17° 68° (ENE) 02:13:19 437.325
BEESAT 2 25 Nov 02:15:28 02:19:27 85° 112° (ESE) 02:23:29 435.950
AO-85 25 Nov 02:22:17 02:25:32 26° 111° (ESE) 02:28:50 145.980
nSIGHT-1 25 Nov 02:23:52 02:26:42 29° 41° (NE) 02:29:31 .
M-CUBED/EXP-1 PRIME 25 Nov 02:24:09 02:27:39 21° 100° (E) 02:31:07 437.505
RS-15 25 Nov 02:25:49 02:36:04 33° 49° (NE) 02:45:47 29.354- 29.394
BEESAT 3 25 Nov 02:32:52 02:35:13 15° 306° (NW) 02:37:35 437.485
UKube-1 25 Nov 02:32:54 02:36:23 24° 263° (W) 02:39:52 .
AO-7 25 Nov 02:58:26 03:05:46 33° 100° (E) 03:13:03 .
Gurwin Techsat 1B 25 Nov 03:06:00 03:10:18 26° 290° (WNW) 03:14:37 435.225
MOZHAYETS 4 25 Nov 03:14:11 03:18:38 56° 260° (W) 03:23:07
ISS 25 Nov 03:21:45 03:24:59 66° 228° (SW) 03:28:12 437.550
BEESAT 25 Nov 03:30:20 03:34:57 50° 259° (W) 03:39:36 436.000
CUBESAT XI-V 25 Nov 03:37:19 03:41:44 49° 75° (ENE) 03:46:11 437.345
ITUPSAT 1 25 Nov 03:43:19 03:47:43 37° 261° (W) 03:52:08 437.325
M-CUBED/EXP-1 PRIME 25 Nov 03:57:52 04:01:55 30° 292° (WNW) 04:05:56 437.505
YUBILEINY 25 Nov 03:59:23 04:05:19 21° 83° (E) 04:11:14 435.215
nSIGHT-1 25 Nov 04:00:48 04:02:42 15° 234° (SW) 04:04:35 .
AO-85 25 Nov 04:03:21 04:05:52 17° 306° (NW) 04:08:27 145.980
ITAMSAT 1 25 Nov 04:07:20 04:12:33 90° 267° (W) 04:17:43 435.822/435.867
KKS-1 25 Nov 04:34:08 04:38:23 44° 74° (ENE) 04:42:39 437.445
DOVE 4 25 Nov 04:36:47 04:41:00 27° 96° (E) 04:45:00 437.250
RS-15 25 Nov 04:37:43 04:49:05 63° 249° (WSW) 04:59:52 29.354- 29.394
STARS 25 Nov 04:46:33 04:49:58 22° 71° (ENE) 04:53:22 437.465
AO-7 25 Nov 04:50:42 04:58:28 45° 293° (WNW) 05:06:14 .
CUBESAT XI-V 25 Nov 05:18:06 05:19:17 11° 267° (W) 05:20:28 437.345
SO-50 25 Nov 05:42:02 05:46:11 31° 58° (ENE) 05:50:21 436.795
YUBILEINY 25 Nov 05:52:36 06:01:13 65° 277° (W) 06:09:58 435.215
XW-2D 25 Nov 05:53:18 05:56:47 33° 98° (E) 06:00:14 145.860 - 145.880
HO-68 25 Nov 06:01:03 06:04:51 15° 94° (E) 06:08:37 435.675
NUDT-PHONESAT 25 Nov 06:03:33 06:06:46 27° 98° (E) 06:09:58 437.300
XW-2B 25 Nov 06:08:05 06:11:48 51° 100° (E) 06:15:31 145.730 - 145.750
FALCONSAT 3 25 Nov 06:09:46 06:12:33 21° 148° (SSE) 06:15:21 435.103
CUTE-I 25 Nov 06:11:23 06:16:28 43° 100° (E) 06:21:29 437.470
KKS-1 25 Nov 06:13:25 06:15:03 12° 266° (W) 06:16:41 437.445
DOVE 4 25 Nov 06:14:33 06:18:27 23° 290° (WNW) 06:22:12 437.250
STRAND 1 25 Nov 06:20:19 06:24:30 25° 70° (ENE) 06:28:40 437.568
STARS 25 Nov 06:22:32 06:26:06 24° 263° (W) 06:29:41 437.465
XW-2C 25 Nov 06:33:55 06:37:42 63° 284° (WNW) 06:41:29 145.795 - 145.815
XW-2F 25 Nov 06:40:21 06:44:04 55° 284° (WNW) 06:47:48 145.980 - 146.000
LilacSat-2 25 Nov 06:41:45 06:45:25 44° 284° (WNW) 06:49:06 437.200
CUTE 1.7 + AOD 2 25 Nov 06:43:16 06:46:59 28° 97° (E) 06:50:40 437.475
CUBEBUG 2 25 Nov 06:51:03 06:53:54 18° 96° (E) 06:56:44 437.445
KAITUO 1B 25 Nov 07:00:26 07:03:57 38° 285° (WNW) 07:07:28 145.475/437.950
SEEDS 25 Nov 07:04:45 07:08:29 30° 97° (E) 07:12:13 437.485
SO-50 25 Nov 07:22:52 07:26:25 21° 250° (WSW) 07:30:00 436.795
XW-2D 25 Nov 07:29:11 07:30:34 12° 290° (WNW) 07:31:57 145.860 - 145.880
UWE-3 25 Nov 07:37:20 07:41:11 36° 99° (E) 07:45:04 435.000/436.395/437.385
NUDT-PHONESAT 25 Nov 07:38:32 07:40:17 13° 289° (WNW) 07:42:03 437.300
PCSat 25 Nov 07:45:15 07:47:03 11° 52° (NE) 07:48:50 145.827
HO-68 25 Nov 07:45:51 07:53:00 74° 287° (WNW) 08:00:07 435.675
XW-2A 25 Nov 07:47:38 07:50:54 44° 100° (E) 07:54:09 145.665 - 145.685
FALCONSAT 3 25 Nov 07:47:43 07:51:23 81° 337° (NNW) 07:55:05 435.103
CUTE-I 25 Nov 07:52:32 07:56:05 18° 293° (WNW) 07:59:38 437.470
STRAND 1 25 Nov 07:59:07 08:03:29 28° 263° (W) 08:07:53 437.568
FO-29 25 Nov 08:05:05 08:11:36 68° 74° (ENE) 08:18:57 435.910
AO-73 25 Nov 08:05:24 08:09:12 34° 98° (E) 08:13:04 145.935
Oscar 11 25 Nov 08:16:43 08:20:33 30° 98° (E) 08:24:22 .
CUTE 1.7 + AOD 2 25 Nov 08:19:42 08:22:31 17° 290° (WNW) 08:25:22 437.475
CUBEBUG 2 25 Nov 08:27:04 08:30:25 24° 288° (WNW) 08:33:47 437.445
UNISAT 6 25 Nov 08:30:02 08:32:44 16° 70° (ENE) 08:35:24 437.425
AAUSAT CUBESAT 2 25 Nov 08:32:32 08:36:34 49° 285° (WNW) 08:40:36 437.432
TIGRISAT 25 Nov 08:33:09 08:35:47 15° 70° (ENE) 08:38:24 435.000
SEEDS 25 Nov 08:41:13 08:43:52 16° 290° (WNW) 08:46:30 437.485
ZACube-1 25 Nov 08:53:15 08:57:14 46° 284° (WNW) 09:01:17 437.345
UWE-3 25 Nov 09:15:30 09:17:16 13° 291° (WNW) 09:19:04 435.000/436.395/437.385
PCSat 25 Nov 09:25:34 09:31:00 80° 247° (WSW) 09:36:23 145.827
FALCONSAT 3 25 Nov 09:27:20 09:30:44 34° 354° (N) 09:34:08 435.103
PRISM 25 Nov 09:38:02 09:41:35 29° 73° (ENE) 09:45:11 437.425
AO-73 25 Nov 09:43:00 09:45:07 14° 290° (WNW) 09:47:14 145.935
EO-88 25 Nov 09:49:03 09:52:20 31° 98° (E) 09:55:35 145.990 - 145.960
FO-29 25 Nov 09:53:23 09:57:15 16° 270° (W) 10:01:23 435.910
Oscar 11 25 Nov 09:53:38 09:56:23 17° 290° (WNW) 09:59:07 .
DELFI C3 25 Nov 09:54:21 09:58:20 87° 281° (WNW) 10:02:17 145.870
Max Valier Satellite 25 Nov 10:01:23 10:05:04 78° 101° (ESE) 10:08:45 145.860
UNISAT 6 25 Nov 10:04:55 10:09:07 36° 261° (W) 10:13:14 437.425
TIGRISAT 25 Nov 10:07:55 10:12:07 36° 261° (W) 10:16:16 435.000
JUGNU 25 Nov 10:31:37 10:32:40 10° 160° (SSE) 10:33:41 437.505
EO-79 25 Nov 10:32:59 10:34:22 11° 68° (ENE) 10:35:44 145.935-145.965
POLYITAN 1 25 Nov 10:48:01 10:50:54 18° 71° (ENE) 10:53:46 437.675
AIST 2D 25 Nov 10:50:04 10:53:28 66° 78° (ENE) 10:56:54 435.315
BEESAT 3 25 Nov 10:53:08 10:56:53 44° 61° (ENE) 11:00:34 437.485
FALCONSAT 3 25 Nov 11:06:47 11:10:15 38° 10° (N) 11:13:44 435.103
QB50P2 25 Nov 11:10:31 11:14:28 39° 74° (ENE) 11:18:25 145.880/145.840
PRISM 25 Nov 11:14:21 11:16:49 15° 265° (W) 11:19:18 437.425
EO-88 25 Nov 11:24:30 11:25:36 11° 290° (WNW) 11:26:41 145.990 - 145.960
O/OREOS (USA 219) 25 Nov 11:27:01 11:29:49 16° 100° (E) 11:32:36 437.305
LO-87 25 Nov 11:31:14 11:34:46 86° 102° (ESE) 11:38:16 145.935 - 145.965
ESTCUBE 1 25 Nov 11:47:28 11:52:02 84° 102° (ESE) 11:56:34 437.505/2401.250
DUCHIFAT 1 25 Nov 11:51:59 11:56:12 90° 17° (NNE) 12:00:25 145.980
NANOSAT C BR1 25 Nov 12:05:30 12:09:36 50° 260° (W) 12:13:42 145.865
EO-79 25 Nov 12:05:38 12:09:40 43° 260° (W) 12:13:42 145.935-145.965
SPROUT 25 Nov 12:07:45 12:11:23 27° 98° (E) 12:15:00 437.525
BEESAT 2 25 Nov 12:16:00 12:19:58 68° 246° (WSW) 12:23:52 435.950
JUGNU 25 Nov 12:16:36 12:21:07 22° 167° (SSE) 12:25:36 437.505
POLYITAN 1 25 Nov 12:22:51 12:26:25 26° 262° (W) 12:30:00 437.675
AO-91 25 Nov 12:23:48 12:28:05 25° 71° (ENE) 12:32:23 145.960
BUGSAT 1 25 Nov 12:25:37 12:29:38 46° 75° (ENE) 12:33:37 437.445
AO-85 25 Nov 12:37:17 12:42:09 68° 62° (ENE) 12:47:19 145.980
Gurwin Techsat 1B 25 Nov 12:41:20 12:45:44 27° 70° (ENE) 12:50:06 435.225
FALCONSAT 3 25 Nov 12:45:48 12:49:29 70° 205° (SSW) 12:53:09 435.103
QB50P2 25 Nov 12:48:45 12:50:20 12° 266° (W) 12:51:55 145.880/145.840
O/OREOS (USA 219) 25 Nov 13:04:42 13:08:52 34° 292° (WNW) 13:13:04 437.305
Oscar 19 25 Nov 13:16:02 13:21:09 90° 205° (SSW) 13:26:17 437.125/150
NO-84 25 Nov 13:21:48 13:25:05 51° 313° (NW) 13:28:40 435.350 FM
VELOX 1 25 Nov 13:23:09 13:27:29 55° 285° (WNW) 13:31:48 145.980
50 SAT 25 Nov 13:26:39 13:29:24 26° 98° (E) 13:32:09 437.505
SPROUT 25 Nov 13:44:13 13:47:00 17° 290° (WNW) 13:49:47 437.525
DX 1 25 Nov 13:53:04 13:57:24 61° 101° (E) 14:01:41 434.975-435.025
